TimeCDT,TemperatureF,Dew PointF,Humidity,Sea Level PressureIn,VisibilityMPH,Wind Direction,Wind SpeedMPH,Gust SpeedMPH,PrecipitationIn,Events,Conditions,WindDirDegrees,DateUTC
12:52 AM,45.0,30.9,58,29.85,-9999.0,WSW,3.5,-,N/A,,Unknown,250,2012-10-11 05:52:00
1:32 AM,53.6,35.6,51,29.87,-9999.0,WNW,12.7,28.8,N/A,,Unknown,300,2012-10-11 06:32:00
1:52 AM,52.0,34.0,50,29.87,-9999.0,NW,9.2,-,N/A,,Unknown,310,2012-10-11 06:52:00
2:52 AM,51.1,33.1,50,29.91,-9999.0,North,11.5,-,N/A,,Unknown,10,2012-10-11 07:52:00
3:52 AM,48.0,30.0,50,29.96,-9999.0,NNE,20.7,29.9,N/A,,Unknown,20,2012-10-11 08:52:00
4:52 AM,41.0,32.0,70,30.02,-9999.0,North,19.6,29.9,N/A,,Unknown,10,2012-10-11 09:52:00
5:52 AM,39.9,30.9,70,30.06,-9999.0,North,16.1,-,N/A,,Unknown,10,2012-10-11 10:52:00
6:52 AM,39.9,30.9,70,30.11,-9999.0,North,16.1,-,N/A,,Unknown,10,2012-10-11 11:52:00
7:52 AM,39.0,30.9,73,30.16,-9999.0,NNE,15.0,27.6,N/A,,Unknown,20,2012-10-11 12:52:00
8:52 AM,39.0,30.9,73,30.20,-9999.0,NNE,17.3,26.5,N/A,,Unknown,20,2012-10-11 13:52:00
9:52 AM,39.9,30.9,70,30.24,-9999.0,NNE,16.1,-,N/A,,Unknown,20,2012-10-11 14:52:00
10:52 AM,43.0,30.9,62,30.27,-9999.0,NNE,13.8,-,N/A,,Unknown,20,2012-10-11 15:52:00
11:52 AM,46.9,28.9,50,30.30,-9999.0,NNE,11.5,-,N/A,,Unknown,20,2012-10-11 16:52:00
12:52 PM,48.0,27.0,44,30.32,-9999.0,NNW,15.0,-,N/A,,Unknown,340,2012-10-11 17:52:00
1:52 PM,48.0,27.0,44,30.31,-9999.0,North,11.5,-,N/A,,Unknown,10,2012-10-11 18:52:00
2:52 PM,50.0,27.0,41,30.30,-9999.0,NNE,10.4,-,N/A,,Unknown,20,2012-10-11 19:52:00
3:52 PM,50.0,28.0,43,30.31,-9999.0,North,10.4,-,N/A,,Unknown,360,2012-10-11 20:52:00
4:52 PM,50.0,28.0,43,30.32,-9999.0,NNE,10.4,-,N/A,,Unknown,20,2012-10-11 21:52:00
5:52 PM,48.0,28.0,46,30.33,-9999.0,North,5.8,-,N/A,,Unknown,10,2012-10-11 22:52:00
6:52 PM,43.0,26.1,51,30.36,-9999.0,NNE,9.2,-,N/A,,Unknown,30,2012-10-11 23:52:00
7:52 PM,37.9,24.1,57,30.39,-9999.0,NE,8.1,-,N/A,,Unknown,40,2012-10-12 00:52:00
8:52 PM,36.0,23.0,59,30.40,-9999.0,ENE,4.6,-,N/A,,Unknown,70,2012-10-12 01:52:00
9:52 PM,34.0,23.0,64,30.42,-9999.0,East,5.8,-,N/A,,Unknown,100,2012-10-12 02:52:00
10:52 PM,33.1,23.0,66,30.42,-9999.0,ESE,5.8,-,N/A,,Unknown,110,2012-10-12 03:52:00
11:52 PM,33.1,23.0,66,30.43,-9999.0,ESE,3.5,-,N/A,,Unknown,120,2012-10-12 04:52:00